CW4740 Weather Reports


Display with metric or nautical units.
time (UTC)temp
F
wind
direction
speed
MPH
gust
MPH
rain 1hr
in
rain 24hr
in
rain mn
in
humidity
%
barometer
mb
20260507095155 75 113 0.0 0.0 0.00 0.00 0.00 89 1015.3
20260507094712 75 113 0.0 0.0 0.00 0.00 0.00 89 1015.4
20260507094629 75 113 0.0 0.0 0.00 0.00 0.00 89 1015.4
20260507094146 75 113 0.0 0.0 0.00 0.00 0.00 89 1015.2
20260507093642 75 113 0.0 0.0 0.00 0.00 0.00 89 1015.2
20260507093241 75 113 0.0 0.0 0.00 0.00 0.00 89 1015.2
20260507092635 75 113 0.0 0.0 0.00 0.00 0.00 89 1015.1
20260507092153 75 113 0.0 0.0 0.00 0.00 0.00 89 1015.2
20260507091631 75 113 0.0 0.0 0.00 0.00 0.00 89 1015.2
20260507091128 75 113 0.0 0.0 0.00 0.00 0.00 89 1015.1
20260507090747 75 113 0.0 0.0 0.00 0.00 0.00 88 1015.1
20260507090643 75 113 0.0 0.0 0.00 0.00 0.00 88 1015.1
20260507090141 75 113 0.0 0.0 0.00 0.00 0.00 88 1015.1
20260507085747 75 113 0.0 0.0 0.00 0.00 0.00 88 1015.2
20260507085705 75 113 0.0 0.0 0.00 0.00 0.00 88 1015.2
20260507085140 75 113 0.0 0.0 0.00 0.00 0.00 88 1015.1
20260507084716 75 113 0.0 0.0 0.00 0.00 0.00 88 1015.1
20260507084247 75 113 0.0 0.0 0.00 0.00 0.00 88 1015.0
20260507084205 75 113 0.0 0.0 0.00 0.00 0.00 88 1015.0
20260507083740 75 113 0.0 0.0 0.00 0.00 0.00 88 1015.0
20260507083136 76 113 0.0 0.0 0.00 0.00 0.00 88 1014.9
20260507082652 76 113 0.0 0.0 0.00 0.00 0.00 88 1014.9
20260507082129 76 113 0.0 0.0 0.00 0.00 0.00 87 1015.0
20260507081647 76 113 0.0 0.0 0.00 0.00 0.00 87 1015.0
20260507081245 76 113 0.0 0.0 0.00 0.00 0.00 87 1015.0
20260507080640 76 113 0.0 2.0 0.00 0.00 0.00 87 1014.9
20260507080158 76 113 1.0 3.0 0.00 0.00 0.00 87 1015.1
20260507075646 76 113 0.0 2.0 0.00 0.00 0.00 87 1015.0
20260507075144 76 113 0.0 3.0 0.00 0.00 0.00 86 1015.2
20260507074642 76 113 1.0 3.0 0.00 0.00 0.00 86 1015.1
20260507074220 76 113 0.0 2.0 0.00 0.00 0.00 86 1015.3
20260507073715 76 113 1.0 2.0 0.00 0.00 0.00 86 1015.3
20260507073131 76 113 1.0 2.0 0.00 0.00 0.00 85 1015.3
20260507072726 76 113 1.0 2.0 0.00 0.00 0.00 85 1015.3
20260507072221 76 113 1.0 2.0 0.00 0.00 0.00 84 1015.3
20260507071655 76 113 0.0 2.0 0.00 0.00 0.00 84 1015.2
20260507071150 76 113 1.0 2.0 0.00 0.00 0.00 83 1015.4
20260507070646 76 113 0.0 2.0 0.00 0.00 0.00 83 1015.4
20260507070203 76 113 0.0 0.0 0.00 0.00 0.00 82 1015.5
20260507065729 76 113 0.0 0.0 0.00 0.00 0.00 82 1015.6
20260507065144 76 113 0.0 2.0 0.00 0.00 0.00 81 1015.7
20260507064642 76 113 0.0 4.0 0.00 0.00 0.00 81 1015.7
20260507064218 77 113 1.0 4.0 0.00 0.00 0.00 80 1015.8
20260507063632 77 113 1.0 4.0 0.00 0.00 0.00 80 1016.0
20260507063224 77 113 2.0 4.0 0.00 0.00 0.00 80 1016.1
20260507062637 77 113 0.0 3.0 0.00 0.00 0.00 79 1016.1
20260507062150 77 113 1.0 4.0 0.00 0.00 0.00 79 1016.0
20260507061646 77 113 0.0 4.0 0.00 0.00 0.00 79 1016.0
20260507061144 77 113 1.0 3.0 0.00 0.00 0.00 79 1015.9
20260507060640 77 113 1.0 4.0 0.00 0.00 0.00 78 1015.8
20260507060216 77 113 1.0 3.0 0.00 0.00 0.00 78 1015.9
20260507055642 77 113 0.0 2.0 0.00 0.00 0.00 77 1016.1
20260507055219 77 113 0.0 4.0 0.00 0.00 0.00 77 1016.2
20260507054636 77 113 2.0 4.0 0.00 0.00 0.00 77 1016.3
20260507054133 77 113 1.0 6.0 0.00 0.00 0.00 77 1016.2
20260507053650 77 113 2.0 6.0 0.00 0.00 0.00 77 1016.4
20260507053146 78 113 2.0 7.0 0.00 0.00 0.00 77 1016.6
20260507052725 78 113 2.0 7.0 0.00 0.00 0.00 77 1016.5
20260507052642 78 113 2.0 7.0 0.00 0.00 0.00 77 1016.5
20260507052240 78 113 1.0 6.0 0.00 0.00 0.00 77 1016.5
20260507051735 78 113 3.0 6.0 0.00 0.00 0.00 77 1016.5
20260507051653 78 113 3.0 6.0 0.00 0.00 0.00 77 1016.5
20260507051210 78 113 1.0 7.0 0.00 0.00 0.00 77 1016.6
20260507050646 78 113 2.0 7.0 0.00 0.00 0.00 77 1016.7
20260507050201 78 104 3.0 7.0 0.00 0.00 0.00 77 1016.8
20260507045629 78 117 2.0 7.0 0.00 0.00 0.00 76 1016.8
20260507045247 78 107 3.0 7.0 0.00 0.00 0.00 76 1016.7
20260507044641 78 113 1.0 8.0 0.00 0.00 0.00 75 1016.7
20260507044139 78 131 4.0 8.0 0.00 0.00 0.00 76 1016.7
20260507043633 78 112 3.0 6.0 0.00 0.00 0.00 76 1016.6
20260507043129 78 112 2.0 6.0 0.00 0.00 0.00 76 1016.7
20260507042707 78 119 3.0 5.0 0.00 0.00 0.00 76 1016.6
20260507042203 78 126 2.0 7.0 0.00 0.00 0.00 76 1016.7
20260507041640 78 127 3.0 7.0 0.00 0.00 0.00 75 1016.6
20260507041157 78 113 2.0 6.0 0.00 0.00 0.00 76 1016.6
20260507040654 78 113 3.0 8.0 0.00 0.00 0.00 76 1016.7
20260507040131 78 113 4.0 8.0 0.00 0.00 0.00 76 1016.8
20260507035639 78 103 2.0 6.0 0.00 0.00 0.00 76 1016.7
20260507035138 78 103 2.0 8.0 0.00 0.00 0.00 76 1016.6
20260507034655 78 103 4.0 9.0 0.00 0.00 0.00 76 1016.7
20260507034132 78 102 4.0 9.0 0.00 0.00 0.00 76 1016.7
20260507033630 78 102 4.0 8.0 0.00 0.00 0.00 76 1016.8
20260507033128 79 102 4.0 8.0 0.00 0.00 0.00 77 1016.9
20260507032747 79 102 3.0 7.0 0.00 0.00 0.00 77 1016.9
20260507032140 79 102 3.0 8.0 0.00 0.00 0.00 76 1017.0
20260507031637 79 102 2.0 7.0 0.00 0.00 0.00 76 1017.0
20260507031153 79 102 2.0 9.0 0.00 0.00 0.00 77 1017.2
20260507030629 79 102 4.0 9.0 0.00 0.00 0.00 76 1017.1
20260507030146 79 102 4.0 8.0 0.00 0.00 0.00 76 1017.3
20260507025654 79 102 4.0 8.0 0.00 0.00 0.00 76 1017.1
20260507025131 79 102 4.0 8.0 0.00 0.00 0.00 76 1017.0
20260507024628 79 102 3.0 9.0 0.00 0.00 0.00 76 1017.1
20260507024226 79 103 4.0 9.0 0.00 0.00 0.00 76 1017.0
20260507024144 79 103 4.0 9.0 0.00 0.00 0.00 76 1017.0
20260507023639 79 109 4.0 9.0 0.00 0.00 0.00 76 1017.1
20260507023136 79 98 4.0 9.0 0.00 0.00 0.00 76 1017.0
20260507022654 79 118 6.0 9.0 0.00 0.00 0.00 77 1017.0
20260507022131 79 120 5.0 9.0 0.00 0.00 0.00 77 1016.9
20260507021729 79 98 4.0 9.0 0.00 0.00 0.00 77 1017.0
20260507021145 79 40 5.0 10.0 0.00 0.00 0.00 76 1016.9
20260507020643 79 98 6.0 10.0 0.00 0.00 0.00 76 1017.0
20260507020141 79 112 4.0 8.0 0.00 0.00 0.00 76 1017.0
20260507015631 79 107 4.0 10.0 0.00 0.00 0.00 76 1016.9
20260507015129 79 101 6.0 10.0 0.00 0.00 0.00 76 1017.0
20260507014647 79 123 4.0 8.0 0.00 0.00 0.00 76 1016.9
20260507014145 79 102 3.0 8.0 0.00 0.00 0.00 75 1016.9
20260507013642 79 74 4.0 9.0 0.00 0.00 0.00 75 1017.0
20260507013159 79 107 6.0 9.0 0.00 0.00 0.00 75 1016.9
20260507012656 79 107 4.0 10.0 0.00 0.00 0.00 75 1017.0
20260507012153 79 107 2.0 10.0 0.00 0.00 0.00 75 1017.0
20260507011650 79 107 2.0 8.0 0.00 0.00 0.00 75 1017.1
20260507011131 80 107 3.0 9.0 0.00 0.00 0.00 74 1017.0
20260507010643 80 107 5.0 9.0 0.00 0.00 0.00 74 1016.8
20260507010146 80 101 3.0 6.0 0.00 0.00 0.00 74 1016.9
20260507005635 80 102 3.0 8.0 0.00 0.00 0.00 74 1016.9
20260507005213 80 109 4.0 8.0 0.00 0.00 0.00 73 1017.0
20260507004704 80 111 3.0 7.0 0.00 0.00 0.00 72 1016.9
20260507004144 80 111 4.0 10.0 0.00 0.00 0.00 72 1016.9
20260507003702 80 101 5.0 10.0 0.00 0.00 0.00 72 1016.8
20260507003159 80 96 2.0 6.0 0.00 0.00 0.00 73 1016.9
20260507002655 80 96 3.0 9.0 0.00 0.00 0.00 72 1016.9
20260507002225 80 116 4.0 9.0 0.00 0.00 0.00 71 1016.8
20260507002143 80 116 4.0 9.0 0.00 0.00 0.00 71 1016.8
20260507001740 80 107 4.0 8.0 0.00 0.00 0.00 71 1016.8
20260507001154 80 107 3.0 8.0 0.00 0.00 0.00 70 1016.8
20260507000750 80 107 3.0 7.0 0.00 0.00 0.00 70 1016.9
20260507000708 80 107 3.0 7.0 0.00 0.00 0.00 70 1016.9
20260507000205 81 107 3.0 8.0 0.00 0.00 0.00 70 1016.7
20260506235651 81 107 5.0 8.0 0.00 0.00 0.00 69 1016.7
20260506235147 81 107 3.0 8.0 0.00 0.00 0.00 69 1016.7
20260506234644 81 107 2.0 8.0 0.00 0.00 0.00 69 1016.8
20260506234201 81 107 4.0 9.0 0.00 0.00 0.00 69 1016.7
20260506233657 81 108 5.0 9.0 0.00 0.00 0.00 69 1016.8
20260506233133 81 94 3.0 8.0 0.00 0.00 0.00 70 1016.8
20260506232630 81 94 3.0 10.0 0.00 0.00 0.00 70 1016.7
20260506232209 81 72 7.0 10.0 0.00 0.00 0.00 69 1016.7
20260506231645 82 94 4.0 8.0 0.00 0.00 0.00 69 1016.7
20260506231203 81 61 4.0 10.0 0.00 0.00 0.00 69 1016.8
20260506230700 82 78 4.0 9.0 0.00 0.00 0.00 70 1016.8
20260506230217 82 57 5.0 9.0 0.00 0.00 0.00 69 1016.7
20260506225640 82 102 4.0 9.0 0.00 0.00 0.00 69 1016.8
20260506225137 82 82 4.0 10.0 0.00 0.00 0.00 69 1016.7
20260506224635 82 96 6.0 13.0 0.00 0.00 0.00 68 1016.6
20260506224133 82 85 6.0 13.0 0.00 0.00 0.00 69 1016.4
20260506223632 82 101 7.0 12.0 0.00 0.00 0.00 67 1016.4
20260506223128 83 113 4.0 11.0 0.00 0.00 0.00 68 1016.4
20260506222646 83 96 6.0 11.0 0.00 0.00 0.00 69 1016.3
20260506222223 83 65 5.0 11.0 0.00 0.00 0.00 69 1016.4
20260506222141 83 65 5.0 11.0 0.00 0.00 0.00 69 1016.4
20260506221658 83 112 5.0 11.0 0.00 0.00 0.00 68 1016.2
20260506221133 83 110 6.0 11.0 0.00 0.00 0.00 66 1016.3
20260506220729 83 104 5.0 11.0 0.00 0.00 0.00 66 1016.3
20260506220144 83 86 5.0 11.0 0.00 0.00 0.00 66 1016.3
20260506215633 83 115 5.0 10.0 0.00 0.00 0.00 65 1016.3
20260506215150 83 129 6.0 11.0 0.00 0.00 0.00 66 1016.3
20260506214707 83 95 4.0 11.0 0.00 0.00 0.00 67 1016.3
20260506214144 83 105 6.0 11.0 0.00 0.00 0.00 65 1016.3
20260506213642 83 49 5.0 10.0 0.00 0.00 0.00 67 1016.2
20260506213220 84 119 5.0 10.0 0.00 0.00 0.00 66 1016.2
20260506212637 84 42 5.0 9.0 0.00 0.00 0.00 66 1016.1
20260506212155 84 79 6.0 11.0 0.00 0.00 0.00 68 1016.2
20260506211632 84 78 3.0 11.0 0.00 0.00 0.00 67 1016.3
20260506211149 84 76 5.0 10.0 0.00 0.00 0.00 67 1016.2
20260506210647 84 67 4.0 12.0 0.00 0.00 0.00 66 1016.1
20260506210144 84 82 5.0 11.0 0.00 0.00 0.00 66 1016.1
20260506205713 84 99 5.0 11.0 0.00 0.00 0.00 67 1016.1
20260506205206 84 138 3.0 10.0 0.00 0.00 0.00 69 1016.0
20260506204702 84 86 6.0 10.0 0.00 0.00 0.00 68 1016.2
20260506204138 84 111 7.0 10.0 0.00 0.00 0.00 66 1016.2
20260506203634 84 104 5.0 10.0 0.00 0.00 0.00 65 1016.2
20260506203152 84 100 7.0 12.0 0.00 0.00 0.00 65 1016.2
20260506202649 84 128 8.0 12.0 0.00 0.00 0.00 66 1016.3
20260506202146 84 98 5.0 12.0 0.00 0.00 0.00 69 1016.3
20260506201644 84 85 7.0 12.0 0.00 0.00 0.00 66 1016.3
20260506201142 84 51 5.0 13.0 0.00 0.00 0.00 68 1016.4
20260506200639 83 107 7.0 13.0 0.00 0.00 0.00 72 1016.4
20260506200155 83 65 5.0 12.0 0.00 0.00 0.00 72 1016.4
20260506195720 83 107 8.0 13.0 0.00 0.00 0.00 70 1016.5
20260506195154 83 87 6.0 13.0 0.00 0.00 0.00 73 1016.6
20260506194709 84 93 5.0 12.0 0.00 0.00 0.00 72 1016.6
20260506194144 84 77 6.0 12.0 0.00 0.00 0.00 73 1016.7
20260506193701 83 98 5.0 10.0 0.00 0.00 0.00 73 1016.7
20260506193158 83 107 4.0 11.0 0.00 0.00 0.00 74 1016.8
20260506192655 83 94 6.0 12.0 0.00 0.00 0.00 74 1016.9
20260506192213 84 86 6.0 12.0 0.00 0.00 0.00 74 1016.9
20260506191630 83 102 7.0 11.0 0.00 0.00 0.00 72 1017.0
20260506191128 84 82 7.0 12.0 0.00 0.00 0.00 71 1017.0
20260506190705 84 88 5.0 10.0 0.00 0.00 0.00 72 1017.0
20260506190140 84 94 4.0 12.0 0.00 0.00 0.00 68 1017.1
20260506185707 84 109 5.0 10.0 0.00 0.00 0.00 68 1017.2
20260506185144 84 111 4.0 9.0 0.00 0.00 0.00 68 1017.3
20260506184640 85 84 5.0 10.0 0.00 0.00 0.00 70 1017.3
20260506184135 85 91 7.0 11.0 0.00 0.00 0.00 67 1017.5
20260506183635 85 103 6.0 11.0 0.00 0.00 0.00 66 1017.5
20260506183205 85 101 6.0 10.0 0.00 0.00 0.00 66 1017.5
20260506182640 85 122 4.0 11.0 0.00 0.00 0.00 65 1017.5
20260506182140 84 98 6.0 11.0 0.00 0.00 0.00 66 1017.6
20260506181637 84 109 6.0 11.0 0.00 0.00 0.00 67 1017.6
20260506181152 85 128 6.0 11.0 0.00 0.00 0.00 68 1017.6
20260506180629 85 149 5.0 12.0 0.00 0.00 0.00 70 1017.6
20260506180227 85 148 7.0 12.0 0.00 0.00 0.00 65 1017.6
20260506175707 85 102 6.0 11.0 0.00 0.00 0.00 63 1017.7
20260506175202 85 103 6.0 10.0 0.00 0.00 0.00 63 1017.7
20260506174718 85 121 3.0 10.0 0.00 0.00 0.00 69 1017.9
20260506174154 85 134 5.0 10.0 0.00 0.00 0.00 70 1017.9
20260506173651 84 80 7.0 10.0 0.00 0.00 0.00 63 1017.9
20260506173207 84 115 4.0 10.0 0.00 0.00 0.00 66 1017.9
20260506172704 84 111 5.0 10.0 0.00 0.00 0.00 66 1018.0
20260506172139 84 105 5.0 11.0 0.00 0.00 0.00 72 1017.9
20260506171654 84 94 4.0 12.0 0.00 0.00 0.00 73 1017.8
20260506171150 84 103 6.0 12.0 0.00 0.00 0.00 69 1017.9
20260506170646 84 140 6.0 10.0 0.00 0.00 0.00 71 1017.8
20260506170223 84 113 6.0 9.0 0.00 0.00 0.00 73 1017.9
20260506165727 84 112 6.0 9.0 0.00 0.00 0.00 71 1018.0
20260506165144 84 91 3.0 10.0 0.00 0.00 0.00 74 1018.0
20260506164741 83 80 5.0 10.0 0.00 0.00 0.00 70 1018.1
20260506164155 83 109 5.0 11.0 0.00 0.00 0.00 75 1018.0
20260506163631 84 105 4.0 9.0 0.00 0.00 0.00 74 1018.0
20260506163129 83 125 6.0 9.0 0.00 0.00 0.00 73 1018.0
20260506162707 83 111 4.0 8.0 0.00 0.00 0.00 75 1018.0
20260506162244 83 107 4.0 11.0 0.00 0.00 0.00 73 1018.1
20260506162140 83 107 4.0 11.0 0.00 0.00 0.00 73 1018.1
20260506161638 83 112 5.0 11.0 0.00 0.00 0.00 73 1018.1
20260506161157 83 86 4.0 9.0 0.00 0.00 0.00 74 1018.1
20260506160634 83 134 5.0 9.0 0.00 0.00 0.00 76 1018.0
20260506160131 82 130 5.0 9.0 0.00 0.00 0.00 77 1018.1
20260506155639 82 95 3.0 10.0 0.00 0.00 0.00 77 1018.1
20260506155156 82 84 5.0 10.0 0.00 0.00 0.00 77 1018.0
20260506154633 82 119 3.0 9.0 0.00 0.00 0.00 76 1018.0
20260506154211 82 138 6.0 10.0 0.00 0.00 0.00 77 1018.0
20260506154129 82 138 6.0 10.0 0.00 0.00 0.00 77 1018.0
20260506153727 82 96 5.0 11.0 0.00 0.00 0.00 78 1017.9
20260506153221 82 107 6.0 11.0 0.00 0.00 0.00 77 1017.9
20260506152733 82 94 4.0 9.0 0.00 0.00 0.00 76 1017.9
20260506152650 82 94 4.0 9.0 0.00 0.00 0.00 76 1017.9
20260506152227 82 128 4.0 9.0 0.00 0.00 0.00 78 1017.8
20260506151702 82 121 4.0 9.0 0.00 0.00 0.00 78 1017.9
20260506151218 82 126 4.0 10.0 0.00 0.00 0.00 80 1017.9
20260506151136 82 126 4.0 10.0 0.00 0.00 0.00 80 1017.9
20260506150633 82 139 5.0 10.0 0.00 0.00 0.00 79 1017.9
20260506150151 82 117 4.0 8.0 0.00 0.00 0.00 79 1017.9
20260506145657 82 120 4.0 8.0 0.00 0.00 0.00 79 1017.7
20260506145134 82 109 4.0 10.0 0.00 0.00 0.00 80 1017.9
20260506144649 82 103 4.0 11.0 0.00 0.00 0.00 79 1017.8
20260506144205 82 112 5.0 11.0 0.00 0.00 0.00 79 1017.7
20260506143700 82 96 3.0 11.0 0.00 0.00 0.00 79 1017.6
20260506143217 82 104 7.0 12.0 0.00 0.00 0.00 80 1017.5
20260506142712 81 100 4.0 12.0 0.00 0.00 0.00 80 1017.6
20260506142128 81 104 6.0 10.0 0.00 0.00 0.00 80 1017.5
20260506141726 81 99 5.0 10.0 0.00 0.00 0.00 80 1017.5
20260506141143 81 129 4.0 9.0 0.00 0.00 0.00 79 1017.6
20260506140639 81 128 4.0 10.0 0.00 0.00 0.00 80 1017.5
20260506140157 81 156 5.0 12.0 0.00 0.00 0.00 80 1017.5
20260506135704 81 151 5.0 12.0 0.00 0.00 0.00 80 1017.5
20260506135142 81 42 5.0 12.0 0.00 0.00 0.00 80 1017.5
20260506134639 81 89 5.0 12.0 0.00 0.00 0.00 81 1017.4
20260506134158 81 109 4.0 9.0 0.00 0.00 0.00 81 1017.4
20260506133635 81 115 5.0 9.0 0.00 0.00 0.00 80 1017.3
20260506133132 81 126 3.0 8.0 0.00 0.00 0.00 82 1017.5
20260506132749 81 92 5.0 8.0 0.00 0.00 0.00 80 1017.5
20260506132707 81 92 5.0 8.0 0.00 0.00 0.00 80 1017.5
20260506132203 81 128 5.0 10.0 0.00 0.00 0.00 81 1017.3
20260506131659 80 115 3.0 10.0 0.00 0.00 0.00 81 1017.2
20260506131134 80 92 6.0 11.0 0.00 0.00 0.00 81 1017.0
20260506130631 80 101 4.0 10.0 0.00 0.00 0.00 82 1017.1
20260506130248 80 101 7.0 11.0 0.00 0.00 0.00 82 1017.0
20260506130145 80 101 7.0 11.0 0.00 0.00 0.00 82 1017.0
20260506125728 80 113 6.0 11.0 0.00 0.00 0.00 83 1017.2
20260506125143 80 117 2.0 9.0 0.00 0.00 0.00 83 1017.2
20260506124701 79 139 3.0 9.0 0.00 0.00 0.00 83 1017.1
20260506124157 79 109 3.0 9.0 0.00 0.00 0.00 82 1017.1
20260506123712 79 84 5.0 9.0 0.00 0.00 0.00 82 1017.1
20260506123207 79 100 5.0 9.0 0.00 0.00 0.00 82 1017.3
20260506122723 79 115 5.0 9.0 0.00 0.00 0.00 82 1017.2
20260506122139 79 94 5.0 8.0 0.00 0.00 0.00 82 1017.1
20260506121657 79 101 3.0 9.0 0.00 0.00 0.00 83 1017.1
20260506121155 79 101 4.0 9.0 0.00 0.00 0.00 83 1017.1
20260506120633 79 94 3.0 6.0 0.00 0.00 0.00 83 1017.2
20260506120131 79 94 2.0 7.0 0.00 0.00 0.00 83 1016.9
20260506115635 79 94 4.0 8.0 0.00 0.00 0.00 83 1017.1
20260506115213 79 96 5.0 8.0 0.00 0.00 0.00 83 1017.0
20260506114706 79 94 4.0 8.0 0.00 0.00 0.00 83 1017.0
20260506114222 79 95 4.0 8.0 0.00 0.00 0.00 83 1016.9
20260506113638 79 119 4.0 8.0 0.00 0.00 0.00 83 1016.8
20260506113135 79 95 3.0 6.0 0.00 0.00 0.00 84 1016.7
20260506112632 78 95 1.0 7.0 0.00 0.00 0.00 85 1016.7
20260506112129 78 95 3.0 7.0 0.00 0.00 0.00 86 1016.6
20260506111747 78 95 2.0 6.0 0.00 0.00 0.00 86 1016.4
20260506111142 77 95 2.0 4.0 0.00 0.00 0.00 87 1016.2
20260506110639 77 95 2.0 3.0 0.00 0.00 0.00 87 1016.3
20260506110158 77 95 1.0 6.0 0.00 0.00 0.00 88 1016.2
20260506105646 77 95 2.0 6.0 0.00 0.00 0.00 88 1016.3
20260506105144 76 95 1.0 3.0 0.00 0.00 0.00 87 1016.1
20260506104641 76 95 1.0 2.0 0.00 0.00 0.00 87 1016.1
20260506104219 76 95 0.0 4.0 0.00 0.00 0.00 86 1016.1
20260506103714 76 95 1.0 4.0 0.00 0.00 0.00 86 1016.1
20260506103149 77 95 0.0 4.0 0.00 0.00 0.00 86 1016.2
20260506102643 77 95 2.0 4.0 0.00 0.00 0.00 86 1016.1
20260506102158 77 95 1.0 3.0 0.00 0.00 0.00 86 1016.0
20260506101633 77 95 1.0 4.0 0.00 0.00 0.00 86 1016.1
20260506101150 77 95 1.0 4.0 0.00 0.00 0.00 86 1016.1
20260506100646 77 95 1.0 6.0 0.00 0.00 0.00 87 1016.0
20260506100144 77 95 1.0 4.0 0.00 0.00 0.00 87 1015.9
20260506095632 77 95 2.0 6.0 0.00 0.00 0.00 87 1015.9